Skip Page Navigation
NASA JPL Caltech
NASA Logo - Jet Propulsion Laboratory + View the NASA Portal
+ Near-Earth Object (NEO) Program
Search JPL
JPL Home Earth Solar System Stars & Galaxies Technology
JPL Solar System Dynamics
BODIES ORBITS EPHEMERIDES TOOLS PHYSICAL DATA DISCOVERY FAQ SITE MAP
JPL Small-Body Database Browser
Search: [ help ]  
2102 Tantalus (1975 YA)
Classification: Apollo [NEO, PHA]          SPK-ID: 2002102
Ephemeris | Orbit Diagram | Orbital Elements | Physical Parameters | Discovery Circumstances | Close-Approach Data ]

[ hide orbit diagram ]
Orbit Diagram
Note: Make sure you have Java enabled on your browser to see the applet. This applet is provided as a 3D orbit visualization tool. The applet was implemented using 2-body methods, and hence should not be used for determining accurate long-term trajectories (over several years or decades) or planetary encounter circumstances. For accurate long-term ephemerides, please instead use our Horizons system.
Orbit Viewer

Additional Notes: the orbits shown in the applet are color coded. The planets are white lines, and the asteroid/comet is a blue line. The bright white line indicates the portion of the orbit that is above the ecliptic plane, and the darker portion is below the ecliptic plane. Likewise for the asteroid/comet orbit, the light blue indicates the portion above the ecliptic plane, and the dark blue the portion below the ecliptic plane.

Orbit Viewer applet originally written and kindly provided by Osamu Ajiki (AstroArts), and further modified by Ron Baalke (JPL).


Orbital Elements at Epoch 2456400.5 (2013-Apr-18.0) TDB
Reference: JPL 54 (heliocentric ecliptic J2000)
 Element Value Uncertainty (1-sigma)   Units 
e .2990269565662268 8.2144e-08  
a 1.290024436662532 1.8613e-09 AU
q .904272355471274 1.0549e-07 AU
i 64.0083537817743 1.5793e-05 deg
node 94.37282437611245 8.1532e-06 deg
peri 61.55877691442006 2.2853e-05 deg
M 133.1051173680852 2.6682e-05 deg
tp 2456202.626523313012
(2012-Oct-02.12652331)
3.9312e-05 JED
period 535.1744021255463
1.47
1.1583e-06
3.171e-09
d
yr
n .6726779131628716 1.4559e-09 deg/d
Q 1.67577651785379 2.4179e-09 AU
  Orbit Determination Parameters
   # obs. used (total)      476  
   data-arc span      12991 days (35.57 yr)  
   first obs. used      1975-12-28  
   last obs. used      2011-07-23  
   planetary ephem.      DE405  
   SB-pert. ephem.      SB405-CPV-2  
   condition code      0  
   fit RMS      .60952  
   data source      ORB  
   producer      Otto Matic  
   solution date      2013-Apr-29 15:37:29  

Additional Information
 Earth MOID = .0429338 AU 
 T_jup = 4.450 
[ show covariance matrix ]

Ephemeris | Orbit Diagram | Orbital Elements | Physical Parameters | Discovery Circumstances | Close-Approach Data ]

Physical Parameter Table
Parameter Symbol Value Units Sigma Reference Notes
absolute magnitude H 16.2 mag n/a PDS3 (MPC 28107)  
rotation period rot_per 2.391 h n/a Asteroid Lightcurve DataBase (Rev. 2013-May-01) Result based on less than full coverage, so that the period may be wrong by 30 percent or so.
Published Reference List:
[Pravec, P.; Wolf, M.; Sarounova, L.; Mottola, S.; et al. (1997) Icarus 130, 275-286.]
SMASSII spectral type spec_B Q   n/a EAR-A-5-DDR-TAXONOMY-V4.0 based on a high-resolution spectrum by Xu et al. (1995) or Bus and Binzel (2002)

2102 Tantalus (1975 YA)          Discovered 1975-Dec-27 by Kowal, C. at Palomar (675)
Reference: DISCOVERY.DBLast Updated: 2003-08-29

[ show close-approach data ]
Ephemeris | Orbit Diagram | Orbital Elements | Physical Parameters | Discovery Circumstances | Close-Approach Data ]
ABOUT SSD CREDITS/AWARDS PRIVACY/COPYRIGHT GLOSSARY LINKS
FirstGov 2013-Jun-19 20:37 UT
(server date/time)  
NASA Home Page
Site Manager:   Donald K. Yeomans
Webmaster  Alan B. Chamberlin